Regional Weather Roundup
Issued by NWS

Home | Current Version | Previous Version | Graphics & Text | Print | Product List | Glossary On
Versions: 1 2 3 4 5 6 7 8 9 10 11 12 13 14 15 16 17 18 19 20 21 22 23 24 25 26 27 28 29 30 31 32 33 34 35 36 37 38 39 40 41 42 43 44 45 46 47 48 49 50
000
ASUS43 KLOT 231303
RWRIL

ILLINOIS REGIONAL WEATHER ROUNDUP
NATIONAL WEATHER SERVICE CHICAGO/ROMEOVILLE IL
700 AM CST MON JAN 23 2017

NOTE: "FAIR" INDICATES FEW OR NO CLOUDS BELOW 12,000 FEET WITH NO
SIGNIFICANT WEATHER AND/OR OBSTRUCTIONS TO VISIBILITY.

* THESE STATIONS ARE NOT UNDER NWS QUALITY CONTROL. THEY ALSO MAY NOT
  REPORT WEATHER SUCH AS PRECIPITATION OR FOG.

ILZ001-002-007-009-015-016-024-231400-
NORTHWEST ILLINOIS

CITY           SKY/WX    TMP DP  RH WIND       PRES   REMARKS
MOLINE         CLOUDY    37  33  85 NW8       29.80R WCI  31
STERLING*      CLOUDY    36  35  96 NW9       29.79R FOG     WCI  29
SAVANNA*       CLOUDY    36  35  94 NW6       29.81R FOG     WCI  31
$$

ILZ003-004-008-010-011-017-018-231400-
NORTH CENTRAL ILLINOIS

CITY           SKY/WX    TMP DP  RH WIND       PRES   REMARKS
ROCKFORD       CLOUDY    37  35  92 NW8       29.78R FOG     WCI  31
FREEPORT*      CLOUDY    35  34  96 NW6       29.79R FOG     WCI  30
ROCHELLE*      CLOUDY    35  35  99 N5        29.77S FOG     WCI  31
DE KALB*       CLOUDY    36  36  99 N7        29.76S FOG     WCI  30
PERU*          CLOUDY    36  34  93 N6        29.77S FOG     WCI  31
$$

ILZ005-006-012>014-019>023-231400-
NORTHEAST ILLINOIS

CITY           SKY/WX    TMP DP  RH WIND       PRES   REMARKS
CHICAGO-OHARE  CLOUDY    38  35  89 N12       29.73S WCI  30
CHICAGO-MIDWAY CLOUDY    39  34  82 N13G23    29.74R WCI  31
AURORA         CLOUDY    38  35  89 NW9       29.74F WCI  31
LANSING*       CLOUDY    37  35  92 N10       29.73R WCI  30
JOLIET*        CLOUDY    39  37  90 N10       29.74S WCI  32
WAUKEGAN       CLOUDY    37  35  92 N7        29.74R WCI  32
DUPAGE AIRPORT CLOUDY    38  33  82 N9        29.73F WCI  31
KANKAKEE*      CLOUDY    38  35  85 N12       29.73R WCI  31
WHEELING       CLOUDY    38  34  85 N12       29.75S WCI  30
MORRIS*        CLOUDY    37  35  92 N5        29.74S WCI  33
ROMEOVILLE*    CLOUDY    37  37  97 N14       29.74S WCI  29
NORTHERLY ISL    N/A     37  34  89 N12         N/A  WCI  29
$$

LMZ740>746-231400-
SOUTHERN LAKE MICHIGAN

STATION/POSITION SKY/WX   TEMP    WIND        PRES    VSBY  WAVE
                          AIR SEA DIR/SP/G                  HT/PER
                          (F)     (DEG/KT/KT) (MB)    (MI)  (FT/S)
HARRISON CRIB              36     340/ 14/ 15   N/A
BURNHAM HARBOR             37      10/ 10/ 13   N/A
CALUMET HARBOR             36     330/ 13/ 18 1006.5R
BURNS HARBOR               36     350/ 11/ 14 1007.1R
MICHIGAN CITY              36     330/ 19/ 21   N/A
$$

ILZ025>027-034>036-040-047-049-050-058-095>099-231400-
WEST-CENTRAL ILLINOIS

CITY           SKY/WX    TMP DP  RH WIND       PRES   REMARKS
QUINCY         CLOUDY    38  35  89 NW12      29.83R WCI  30
GALESBURG*     CLOUDY    35  35  98 NW9       29.80R WCI  28
MACOMB*        CLOUDY    36  35  96 NW6       29.83R WCI  31
JACKSONVILLE*  CLOUDY    37  35  92 NW7       29.81R FOG     WCI  32
PITTSFIELD*    CLOUDY    39  36  89 NW6       29.83R WCI  34
$$

ILZ028>032-037-038-041>044-048-051>054-059>061-231400-
CENTRAL ILLINOIS

CITY           SKY/WX    TMP DP  RH WIND       PRES   REMARKS
BLOOMINGTON    CLOUDY    36  34  92 NW18      29.75R WCI  26
DECATUR        CLOUDY    39  37  92 N22G29    29.74R WCI  29
PEORIA         CLOUDY    37  34  89 N7G16     29.79R WCI  32
LACON*         CLOUDY    37  35  96 NW7       29.78R WCI  31
LINCOLN*       CLOUDY    38  37  93 N10G16    29.77S WCI  31
SPRINGFIELD    CLOUDY    39  35  86 NW12      29.79R WCI  32
TAYLORVILLE    CLOUDY    37  35  93 NW15G23   29.77R WCI  28
$$

ILZ033-039-045-046-055>057-062-063-231400-
EAST-CENTRAL ILLINOIS

CITY           SKY/WX    TMP DP  RH WIND       PRES   REMARKS
CHAMPAIGN      PTCLDY    37  34  89 NW16      29.70R WCI  28
RANTOUL*       CLOUDY    39  37  94 N13       29.70R FOG     WCI  31
MATTOON        CLOUDY    38  36  92 N22       29.70R WCI  27
PARIS*         CLOUDY    40  38  95 N13G22    29.67S FOG
$$

ILZ079-100>102-231400-
SOUTHWEST ILLINOIS

CITY           SKY/WX    TMP DP  RH WIND       PRES   REMARKS
ALTON          CLOUDY    39  36  87 NW16      29.80R WCI  30
BELLEVILLE     CLOUDY    40  38  93 NW15      29.78R
CAHOKIA*       CLOUDY    41  35  79 NW13      29.80R
SPARTA*        CLOUDY    40  36  86 NW12G20   29.78R
$$

ILZ064>066-069>071-074>076-080>082-084>086-088>090-092>094-231400-
SOUTH-CENTRAL ILLINOIS

CITY           SKY/WX    TMP DP  RH WIND       PRES   REMARKS
CARBONDALE     CLOUDY    40  37  89 NW15G21   29.75R
CAIRO*         PTCLDY    40  36  85 NW20G25   29.72R
EFFINGHAM*     CLOUDY    40  38  92 NW15      29.73R
MARION         CLOUDY    41  39  93 N23       29.74R
MT. VERNON     CLOUDY    40  36  86 VRB6      29.72R
CENTRALIA*     CLOUDY    41  38  89 NW17G26   29.73R
SALEM*         CLOUDY    41  37  84 N16G25    29.73R
METROPOLIS*    CLEAR     40  36  84 NW13G22   29.69R
$$

ILZ067-068-072-073-078-083-087-091-231400-
SOUTHEAST ILLINOIS

CITY           SKY/WX    TMP DP  RH WIND       PRES   REMARKS
LAWRENCEVILLE  CLOUDY    42  40  92 N15       29.66R
FLORA*         CLOUDY    43  38  83 NW16G22   29.71R
FAIRFIELD*     CLOUDY    41  38  87 NW6       29.69R
HARRISBURG*    CLOUDY    41  37  87 NW13G21   29.70R
ROBINSON*      CLOUDY    40  38  92 N17       29.67R
CARMI*         CLOUDY    41  38  89 NW22G30   29.67R
$$

ABBREVIATIONS USED IN REMARKS
   TC - TEMPERATURE IN CELSIUS
  WCI - WIND CHILL INDEX
   HX - HEAT INDEX
  VSB - VISIBILITY
$$




USA.gov is the U.S. government's official web portal to all federal, state and local government web resources and services.